Погода в Кирюшкине

Россия / Оренбургская область     53°34′36″N   52°18′15″E
темп.,
°C
ветер,
м/с
пор.,
м/с
влажн.,
%
обл.,
%
осадки,
мм/ч
давл.,
гПа
погр.,
м
21 апреля, ср
ср2123:00+4вюв513466 0.0 1030299
02:00+3юв61449100 0.0 1030446
05:00+2юв61550100 0.0 1029477
08:00+3юв71548100 0.0 1029681
11:00+6ююв91335100 0.0 1029874
14:00+9ююв101230100 0.0 10271035
17:00+9ю71239100 0.0 10281095
20:00+8ююв71243100 0.1 1026881
22 апреля, чт
чт2223:00+6ю61466100 0.6 1027946
02:00+4ююв81590100 1.3 1027880
05:00+3ююв71394100 3.1 1028769
08:00+4ю71296100 2.0 1028787
11:00+4ююв61191100 4.9 1029614
14:00+4ююв61186100 0.3 1029594
17:00+4ююв51085100 0.6 1029554
20:00+4ююв51089100 0.6 1029502
23 апреля, пт
пт2323:00+4ююв5992100 0.9 1029457
02:00+3ююв4796100 0.3 1028345
05:00+3юв3797100 0.4 1028310
08:00+4юв2596100 0.0 1029198
11:00+7в3385100 0.0 1028357
14:00+11в4562100 0.0 10261025
17:00+13вюв4552100 0.0 10241237
20:00+10вюв3471100 0.0 102486
24 апреля, сб
сб2423:00+8ююв4989100 0.1 1023439
02:00+6вюв3792100 1.3 1021456
05:00+6всв5994100 3.0 1019426
08:00+7в5891100 1.8 1017693
11:00+6в4690100 2.3 1015902
14:00+6св3595100 1.8 1014315
17:00+7с2295100 2.9 1013166
20:00+6зсз2395100 0.0 1014119
25 апреля, вс
вс2523:00+6з2592100 0.0 1014167
02:00+6ююз228629 0.0 101326
05:00+5ююв3892100 0.0 1012193
08:00+6ююз51297100 1.4 1012658
11:00+8з8107252 1.6 10141109
14:00+11зюз810465 0.0 10152057
17:00+13зюз7103879 0.0 10162662
20:00+10ююз495559 0.0 1016212